Terminal Aerodrome Forecast
Issued by NWS Sterling, VA

Current Version | Previous Version | Graphics & Text | Print | Product List | Glossary On
Versions: 1 2 3 4 5 6 7 8 9 10 11 12 13 14 15 16 17 18 19 20 21
000
FTUS41 KLWX 211700 RRA
TAFDCA
TAF
KDCA 211743Z 2118/2218 VRB03KT P6SM FEW250
     FM221600 21009KT P6SM BKN090=

USA.gov is the U.S. government's official web portal to all federal, state and local government web resources and services.